Weather in Yanshikhovo-Chelly

Russia / Chuvash Republic     55°44′48″N   47°17′37″E
temp.,
°C
wind,
m/s
gust,
m/s
humid.,
%
clouds,
%
prec.,
mm/h
press.,
hPa
HPBL,
m
15 august, mon
mon1500:00+18s2260100 0.0 102222
03:00+16sw116659 0.0 102311
06:00+18wsw116697 0.0 102423
09:00+22wnw125557 0.0 1024476
12:00+25nnw23533 0.0 10241350
15:00+25nnw335022 0.0 10231574
18:00+22ese236911 0.0 102355
21:00+18nne22743 0.0 102419
16 august, tue
tue1600:00+17e22745 0.0 102515
03:00+15ene22755 0.0 102513
06:00+16ene237640 0.0 102686
09:00+21ene345881 0.0 1026490
12:00+24e335076 0.0 10251284
15:00+25e234713 0.0 10241667
18:00+23ene22605 0.0 102429
21:00+18ene226630 0.0 102515
17 august, wed
wed1700:00+16ese2274100 0.0 102520
03:00+16ese237277 0.0 102432
06:00+16e24725 0.0 102592
09:00+22ese46525 0.0 1024555
12:00+24ese46435 0.0 10241390
15:00+25ese45415 0.0 10231609
18:00+23ese225850 0.0 102222
21:00+18e22645 0.0 102212
18 august, thu
thu1800:00+17e34703 0.0 102253
03:00+16e34760 0.0 102360
06:00+16e36760 0.0 1023135
09:00+22e57510 0.0 1023509
12:00+25e67430 0.0 10231264
15:00+26ese56410 0.0 10231613
18:00+23ese23580 0.0 102331
21:00+19e33680 0.0 102429
19 august, fri
fri1900:00+18e377399 0.0 1024106
03:00+16ese367526 0.0 102696
06:00+17e3675100 0.0 1027144
09:00+22ese4657100 0.0 1028475
12:00+25ese454797 0.0 10281238
15:00+25ese454558 0.0 10281552
18:00+22se336198 0.0 102855
21:00+18ese3463100 0.0 102847